Location: Franzen
(48.6167°N, 15.3833°E)
Time: 10:54:25
(UTC+00:00)

Cosmos 1766 Rocket - Pass Details

Date: 22 April 2021
Orbit: 605 x 633 km, 82.5° (Epoch: 16 May)

Event Time Altitude Azimuth Distance (km) Brightness Sun altitude
Rises 20:28:21 0° 345° (NNW) 2,874 8.1 -20.6°
Reaches altitude 10° 20:30:37 10° 341° (NNW) 1,966 7.2 -20.9°
Maximum altitude 20:34:49 50° 266° (W) 777 4.2 -21.3°
Enters shadow 20:36:22 33° 211° (SSW) 1,027 4.5 -21.4°
